Anik C2

operational
NORAD ID: 14133 Int'l Des: 1983-059 Owner: TCAN Country: CA
HEOCIRCULAR

Anik C2について

説明を読み込み中...

リアルタイム位置

3D地球を読み込み中...

次回通過

高度履歴

Altitude vs Time

uPlot chart will show altitude changes over time

軌道要素

1 14133U 83059B 26060.99314108 -.00000179 00000-0 00000-0 0 9994
2 14133 13.0119 336.9638 0034847 116.5592 243.8196 0.99125988 45083
Epoch: Mar 1, 2026 • Age: 53 hours

現在のステータス

高度 36014.6 km
速度 3.07 km/s
衛星直下点 11.94°N, 174.26°E
打ち上げ日 Jun 18, 1983
運用期間 42.7 years
タイプ other

技術仕様

分類 Payload
質量 592.00 kg
乾燥質量 444.00 kg
総質量 1118.00 kg
長さ 6.60 m
直径 2.20 m
スパン 6.60 m
形状 Cyl
製造者 HSES
バスタイプ HS-376
フェーズステータス Unknown Active Status
所有者/国 TCAN/CA

大規模コンステレーション

Loading constellations...